Startseite
Über Mich
AHP4
Galerie
Sehschlangen
Tourenbuch
Bookmarks
Elektronik
Bewertung
Geschichten
[Tagesmessung] [Jahreswerte] [Information]

Messwerte vom 26.06.2022

Die letzten Messwerte von 23:58:48 Uhr:
KategorieMesswert
Temperatur [°C]22
Luftdruck [mBar]998
Sonneneinstrahlung0
Wind [km/h]3 aus Nordost
Niederschlag [l/m²]0
rel.Luftfeucht.75.7%
CO2 [ppm]630

Diagramme
Messwerte vom 26.06.2022
Tagesaggregation
KategorieMinimumMaximumSchnittSumme
Temperatur [°C]153323.7604
Luftdruck [mBar]996999997.7771
Sonneneinstrahlung247140.8708
Wind [km/h]15
rF [%]41.296.669.05
Niederschlag [l/m²]0
CO2 [ppm]401638462.1
Einordnung alsVegetationstag
Sommertag
Heißer Tag

Messungen an benachbarten Tagen: Zur Jahresaggregation 2022
Tabelle aller Messwerte
UhrzeitTemperatur [°C]Luftdruck [mBar]SonneWind [km/h]RichtungRegen [l/m²]rF [%]CO2 [ppm]
00:01:48 19 996 0 0 SO 0 85.6 459
00:04:47 18 996 0 0 SO 0 85.4 456
00:07:47 18 997 0 0 SO 0 85.3 456
00:10:49 18 996 0 0 SO 0 85.3 456
00:13:46 18 997 0 0 SO 0 85.1 456
00:16:46 18 996 0 0 SO 0 85.3 459
00:19:49 18 996 0 0 SO 0 85.4 454
00:22:47 18 997 0 0 SO 0 84.9 456
00:25:51 18 996 0 0 SO 0 85.2 460
00:28:47 18 996 0 0 SO 0 85.3 459
00:31:46 18 997 0 5 NW 0 85.9 459
00:34:46 18 997 0 3 S 0 87 456
00:37:45 18 996 0 5 N 0 87.1 450
00:40:47 18 996 0 0 SO 0 87.4 454
00:43:49 18 997 0 0 NW 0 87 456
00:46:50 18 996 0 0 NW 0 87.1 460
00:49:47 18 996 0 0 NW 0 87.1 468
00:52:48 18 997 0 0 NW 0 87.1 468
00:55:47 18 996 0 0 NW 0 87.4 465
00:58:46 18 997 0 0 NW 0 87.7 462
01:01:47 18 997 0 0 NW 0 87.4 456
01:04:46 18 997 0 0 NW 0 87.6 456
01:07:47 18 997 0 0 NW 0 88.2 453
01:10:48 18 997 0 0 NW 0 87.2 460
01:13:47 18 996 0 0 NW 0 87.2 459
01:16:50 18 997 0 0 NW 0 87.9 465
01:19:47 18 996 0 0 NW 0 87.9 465
01:22:47 18 996 0 0 NW 0 87.6 465
01:25:47 17 996 0 0 NW 0 88.1 460
01:28:48 17 997 0 0 NW 0 88.4 460
01:31:47 17 997 0 0 NW 0 89.5 459
01:34:48 17 996 0 0 NW 0 89.2 459
01:37:46 17 997 0 0 NW 0 89.2 459
01:40:47 17 996 0 0 NW 0 89.7 462
01:43:48 17 996 0 0 NO 0 91.7 459
01:46:47 17 996 0 0 NO 0 92 466
01:49:47 17 996 0 0 NO 0 91.9 468
01:52:48 17 997 0 0 NO 0 91.2 468
01:55:47 17 997 0 0 NO 0 90.8 465
01:58:46 17 997 0 0 NO 0 90.9 468
02:01:47 17 996 0 0 NO 0 91.2 468
02:04:47 17 997 0 0 NO 0 90.9 471
02:07:48 17 997 0 0 NO 0 91.4 471
02:10:48 17 997 0 0 N 0 92 477
02:13:48 17 997 0 2 NO 0 92.2 471
02:16:47 17 997 0 0 NO 0 93 472
02:19:47 17 997 0 0 NO 0 92.9 471
02:22:45 17 997 0 0 NO 0 92.7 477
02:25:48 17 997 0 0 NO 0 92.8 480
02:28:48 17 996 0 0 NO 0 92.8 480
02:31:47 16 997 0 0 NO 0 92.8 483
02:34:47 16 996 0 0 NO 0 92.5 481
02:37:49 16 998 0 0 NO 0 92.5 478
02:40:46 16 996 0 0 NO 0 92.7 475
02:43:48 16 997 0 0 NO 0 92.7 478
02:46:45 16 996 0 0 NO 0 93 477
02:49:48 16 996 0 0 NO 0 93.7 483
02:52:47 16 997 0 0 NO 0 94.1 481
02:55:48 16 997 0 0 NO 0 93.9 483
02:58:50 16 997 0 0 SO 0 93.3 486
03:01:47 16 997 0 0 O 0 93.2 483
03:04:47 16 997 0 0 N 0 94.1 488
03:07:48 16 996 0 0 NO 0 94.3 483
03:10:49 16 996 0 0 NO 0 94.1 486
03:13:47 16 997 0 0 NO 0 93.7 483
03:16:49 16 996 0 0 NO 0 93.6 485
03:19:48 16 997 0 0 NO 0 93.5 492
03:22:48 16 997 0 0 NO 0 93.6 495
03:25:46 16 997 0 0 NO 0 93.9 488
03:28:49 16 997 0 0 NO 0 93.9 483
03:31:48 16 997 0 0 NO 0 93.9 486
03:34:46 16 996 0 0 NO 0 93.9 480
03:37:48 16 996 0 0 NO 0 94.4 480
03:40:45 16 997 0 0 NO 0 94.9 474
03:43:48 16 997 0 0 NO 0 94.9 479
03:46:50 16 997 0 0 NO 0 94.6 480
03:49:49 16 997 0 0 NO 0 94.6 483
03:52:49 16 996 0 0 NO 0 94.7 486
03:55:46 16 996 0 0 NO 0 94.8 492
03:58:47 16 996 0 1 NO 0 95.2 492
04:01:46 16 997 0 0 NO 0 95.8 489
04:04:47 16 997 0 0 NO 0 96.2 489
04:07:49 16 997 0 0 NO 0 95.8 494
04:10:47 16 996 0 0 NO 0 95.4 492
04:13:47 16 996 0 0 NO 0 95.2 497
04:16:47 16 996 0 0 NO 0 95 492
04:19:46 16 997 0 0 NO 0 95.1 483
04:22:46 16 997 3 0 NO 0 95.6 483
04:25:46 16 996 4 0 NO 0 95.4 489
04:28:46 15 996 6 0 NO 0 95.2 495
04:31:48 15 996 9 0 NO 0 95 497
04:34:49 15 997 12 0 SO 0 95 492
04:37:48 15 997 15 0 SO 0 95 489
04:40:46 15 997 20 0 SO 0 95.2 491
04:43:49 15 997 27 0 SO 0 95.5 492
04:46:48 16 997 34 0 SO 0 95.6 497
04:49:47 16 997 41 0 S 0 95.9 495
04:52:47 16 996 49 0 W 0 96 501
04:55:48 16 997 57 0 W 0 96.1 495
04:58:45 15 998 66 0 W 0 95.9 491
05:01:47 15 998 74 0 W 0 95.9 495
05:04:47 15 997 81 0 W 0 96.1 501
05:07:50 15 997 88 0 W 0 95.9 501
05:10:50 15 997 96 0 W 0 96.3 503
05:13:48 15 997 102 0 W 0 96.6 498
05:16:47 15 996 109 0 W 0 96.6 496
05:19:46 15 997 116 0 W 0 96.6 495
05:22:48 15 997 123 0 W 0 96.6 500
05:25:46 15 997 127 0 W 0 96.6 504
05:28:50 15 998 131 0 W 0 96.6 500
05:31:49 15 998 134 0 W 0 96.6 503
05:34:50 15 997 138 0 W 0 96.6 507
05:37:48 16 997 142 0 W 0 96.6 504
05:40:47 16 998 146 0 W 0 96.6 507
05:43:48 16 997 150 0 W 0 96.6 509
05:46:47 16 996 153 0 W 0 96.6 509
05:49:52 16 997 156 0 W 0 96.6 500
05:52:48 16 998 158 0 W 0 96.5 507
05:55:47 16 997 163 0 W 0 96.4 509
05:58:49 16 998 166 0 W 0 96.3 509
06:01:46 16 997 170 0 W 0 96.2 513
06:04:49 16 998 173 0 W 0 96.1 499
06:07:48 16 998 174 0 W 0 96.1 497
06:10:48 16 997 173 0 W 0 96.1 501
06:13:49 16 997 172 0 W 0 95.9 507
06:16:46 16 997 174 0 W 0 95.8 510
06:19:46 17 998 174 0 W 0 95.7 518
06:22:46 17 997 174 0 W 0 95.8 518
06:25:47 17 997 173 0 W 0 95.5 515
06:28:48 17 998 172 0 W 0 95.2 507
06:31:49 17 998 171 0 W 0 94.9 503
06:34:48 17 997 169 0 W 0 94.8 503
06:37:50 17 998 169 0 W 0 94.3 500
06:40:48 17 997 171 0 W 0 94.1 509
06:43:48 17 998 171 0 W 0 93.8 518
06:46:49 17 998 172 0 NW 0 93.6 515
06:49:47 17 997 174 0 NW 0 93.5 509
06:52:48 17 997 175 0 NW 0 93.5 509
06:55:48 17 998 178 0 NW 0 93.5 506
06:58:49 17 998 181 0 NW 0 93.5 501
07:01:50 18 998 185 0 NW 0 93.5 507
07:04:49 18 998 188 0 NW 0 93.5 506
07:07:49 18 998 189 0 NW 0 93.5 512
07:10:49 18 998 189 0 NO 0 93.4 509
07:13:50 18 997 188 1 N 0 93.1 509
07:16:46 18 997 188 0 N 0 93 515
07:19:47 18 997 188 0 N 0 92.9 515
07:22:47 18 998 188 0 N 0 92.6 509
07:25:48 18 997 187 0 N 0 92.6 512
07:28:45 18 997 186 1 N 0 92.7 512
07:31:48 19 997 184 0 N 0 92.9 506
07:34:47 20 998 187 0 N 0 92.6 503
07:37:49 21 997 186 0 N 0 89.7 506
07:40:49 22 997 185 0 NO 0 87.8 506
07:43:47 22 997 184 0 O 0 85.9 506
07:46:47 23 998 182 0 O 0 84.1 509
07:49:50 23 997 183 0 O 0 83.3 509
07:52:48 23 998 185 0 NO 0 82.6 501
07:55:50 24 998 187 0 NO 0 78.9 503
07:58:48 24 998 193 0 N 0 78.5 504
08:01:47 25 997 197 0 O 0 78.8 515
08:04:47 26 998 199 0 O 0 75.8 503
08:07:48 27 998 199 1 O 0 69.1 500
08:10:47 28 997 196 1 N 0 68.3 469
08:13:48 27 998 191 1 SO 0 66.4 471
08:16:49 26 998 187 0 S 0 66.5 472
08:19:50 25 998 187 0 S 0 69.8 474
08:22:48 25 998 187 0 S 0 70.1 468
08:25:47 24 998 190 0 O 0 72.1 471
08:28:48 24 998 194 0 O 0 73.2 471
08:31:49 24 998 194 0 N 0 74.1 477
08:34:46 24 998 195 0 N 0 75 469
08:37:49 23 998 194 3 SO 0 76.2 471
08:40:49 23 998 196 2 SO 0 76.6 462
08:43:49 23 998 198 3 S 0 76.6 466
08:46:49 23 998 199 2 N 0 76.2 468
08:49:48 24 998 201 0 S 0 76.1 472
08:52:49 24 998 203 0 SO 0 75.9 472
08:55:50 24 998 204 2 SO 0 75.7 471
08:58:51 24 998 206 0 SO 0 74.9 471
09:01:49 24 998 208 1 SO 0 74.5 466
09:04:46 24 998 208 2 S 0 74.4 466
09:07:49 24 998 208 4 S 0 71.2 469
09:10:48 25 998 208 1 S 0 70.5 465
09:13:50 25 998 209 1 SW 0 69.6 460
09:16:49 25 998 209 3 S 0 68.7 466
09:19:48 25 998 210 5 SW 0 67.2 462
09:22:48 25 998 210 2 SO 0 66 462
09:25:46 25 998 211 0 S 0 67.4 456
09:28:48 25 998 212 3 S 0 66.5 466
09:31:48 25 998 214 1 S 0 66.4 467
09:34:46 25 998 216 0 N 0 66.1 475
09:37:48 25 998 216 0 NW 0 66.2 462
09:40:49 25 998 218 3 SW 0 66.7 464
09:43:48 25 998 219 6 S 0 65.2 462
09:46:47 25 998 219 2 S 0 64 471
09:49:49 26 998 220 2 SW 0 62.3 457
09:52:48 26 998 220 0 S 0 61.4 463
09:55:49 26 998 220 3 S 0 63 459
09:58:32 25 998 220 3 NW 0 54.4 466
10:01:51 26 998 221 3 S 0 59 458
10:04:49 27 998 220 1 SW 0 56.8 460
10:07:49 27 998 219 0 N 0 56 454
10:10:47 27 998 218 0 W 0 56.6 453
10:13:49 27 998 217 0 NW 0 58.5 448
10:16:49 27 998 216 2 SO 0 58.4 454
10:19:49 27 998 216 1 SW 0 57.8 448
10:22:47 27 998 216 8 W 0 56 451
10:25:47 27 998 217 1 W 0 55.8 450
10:28:48 27 998 215 0 SW 0 56.4 457
10:31:49 28 998 217 3 SO 0 54.6 460
10:34:48 28 998 217 0 SW 0 53.3 455
10:37:49 28 998 218 0 SW 0 54.7 460
10:40:50 28 998 217 2 SO 0 53.8 460
10:43:51 28 998 216 2 W 0 54.8 458
10:46:49 28 998 214 2 NW 0 54.5 460
10:49:49 28 999 213 2 S 0 52 456
10:52:48 28 998 212 1 S 0 53 455
10:55:46 28 998 211 0 S 0 53.5 456
10:58:49 28 998 212 1 SO 0 53 459
11:01:48 28 998 214 2 S 0 52.3 460
11:04:48 28 998 213 0 W 0 52.9 460
11:07:49 28 998 214 2 S 0 46.1 454
11:10:48 28 998 215 1 SO 0 46 457
11:13:46 28 998 215 3 SW 0 47.5 454
11:16:47 28 998 215 4 W 0 46.5 459
11:19:49 28 998 212 1 SW 0 48.1 460
11:22:47 29 998 206 3 N 0 51.2 463
11:25:49 29 998 204 5 NW 0 51.8 459
11:28:48 29 998 203 2 NW 0 50.5 453
11:31:49 29 998 192 3 NW 0 50.7 448
11:34:49 28 998 192 1 SO 0 52.3 445
11:37:47 28 998 198 2 W 0 53.2 450
11:40:50 28 998 203 0 SW 0 55.1 451
11:43:48 28 998 203 4 SW 0 55.5 451
11:46:50 29 998 203 10 NW 0 53.5 456
11:49:46 28 998 203 5 N 0 52.5 457
11:52:47 29 998 204 2 N 0 52.4 456
11:55:47 29 998 205 5 W 0 52.4 447
11:58:47 30 998 205 1 SW 0 52.2 447
12:01:47 30 999 206 3 W 0 50.8 442
12:04:48 31 998 207 0 N 0 49.2 439
12:07:47 31 998 209 1 SW 0 49.2 444
12:10:52 32 998 212 0 SW 0 45.2 448
12:13:48 32 998 214 6 NW 0 44.4 444
12:16:50 32 999 217 3 W 0 44 442
12:19:46 32 998 218 7 O 0 43.4 448
12:22:47 32 998 225 4 W 0 44.7 447
12:25:47 32 998 224 4 O 0 45 442
12:28:50 30 998 225 2 SO 0 44.6 436
12:31:49 30 998 225 4 N 0 48.3 442
12:34:49 29 998 225 0 SO 0 48.8 442
12:37:49 30 998 225 3 SO 0 49.2 448
12:40:50 29 999 225 0 W 0 49.2 442
12:43:47 30 999 224 0 W 0 50.8 445
12:46:49 30 998 223 1 SO 0 48.6 446
12:49:49 30 999 223 0 SW 0 48.8 448
12:52:46 30 999 221 0 O 0 49.9 453
12:55:50 30 999 219 0 N 0 49.5 448
12:58:48 29 998 217 1 SW 0 49.3 445
13:01:49 29 998 214 4 SW 0 48.8 437
13:04:49 29 998 212 0 SO 0 48.6 436
13:07:51 29 998 209 0 SW 0 49.6 439
13:10:49 28 999 206 0 O 0 49.6 442
13:13:49 28 998 206 0 NW 0 50.6 445
13:16:49 28 998 209 0 NW 0 51.9 436
13:19:46 28 998 211 0 O 0 52.7 436
13:22:46 28 999 213 0 S 0 52.9 427
13:25:48 28 998 215 0 SW 0 52.4 424
13:28:50 28 999 216 0 S 0 52.2 424
13:31:49 28 999 217 0 S 0 52.5 433
13:34:48 28 998 218 0 SW 0 52.9 433
13:37:48 28 998 219 0 SW 0 53.3 436
13:40:48 28 999 220 0 SO 0 53.1 436
13:43:50 28 998 221 0 SO 0 54.6 433
13:46:47 28 998 222 0 SW 0 55.1 433
13:49:50 28 999 222 1 SW 0 53.8 433
13:52:49 28 999 223 4 W 0 52.8 424
13:55:47 28 998 224 1 W 0 52.9 427
13:58:48 28 999 225 0 W 0 53.9 433
14:01:48 28 999 226 0 W 0 55.3 442
14:04:49 28 998 228 0 W 0 55.6 433
14:07:47 28 999 229 0 W 0 54.7 433
14:10:48 29 999 230 0 W 0 55.3 427
14:13:48 29 999 230 0 W 0 53.7 434
14:16:47 29 999 230 2 N 0 53.8 430
14:19:45 29 998 231 3 N 0 54.1 438
14:22:45 29 999 233 3 N 0 53 433
14:25:48 29 998 234 2 N 0 52.3 429
14:28:52 29 998 234 5 N 0 49.4 431
14:31:46 29 999 233 1 N 0 49.3 431
14:34:46 29 998 231 3 N 0 50.8 427
14:37:50 29 998 231 4 NW 0 50.7 427
14:40:50 29 998 231 2 NW 0 47.9 424
14:43:49 29 999 232 1 NW 0 48 427
14:46:48 29 998 233 3 N 0 48.1 424
14:49:47 29 998 233 1 N 0 48.4 424
14:52:50 29 998 234 0 NW 0 48.1 425
14:55:49 30 998 235 2 NW 0 46.5 410
14:58:50 30 998 240 2 NW 0 45.5 416
15:01:48 30 998 235 3 N 0 44.5 416
15:04:50 30 998 234 2 N 0 43.3 425
15:07:47 30 998 234 0 NW 0 44.2 434
15:10:50 31 998 231 1 O 0 46.3 433
15:13:47 31 998 229 0 NW 0 41.5 429
15:16:50 31 999 230 1 NW 0 42.6 418
15:19:47 30 998 234 0 N 0 43.1 421
15:22:47 30 998 239 0 N 0 44.9 416
15:25:48 31 998 232 0 N 0 47 418
15:28:47 31 998 230 2 S 0 43.8 412
15:31:48 31 998 223 0 SW 0 43.8 415
15:34:46 31 998 222 0 W 0 44.2 413
15:37:46 31 999 239 0 SO 0 44.5 421
15:40:50 31 998 222 0 SO 0 46.2 421
15:43:48 31 998 216 2 SW 0 46.4 421
15:46:47 31 999 213 3 SW 0 45.6 424
15:49:49 30 998 217 0 O 0 45.9 421
15:52:47 30 998 220 1 SW 0 46.8 424
15:55:49 30 998 220 0 SW 0 47.7 424
15:58:47 30 998 223 0 O 0 49.5 421
16:01:51 29 999 231 0 NW 0 50.2 418
16:04:49 30 998 225 0 NW 0 51 421
16:07:47 30 999 219 0 NW 0 51.6 419
16:10:49 30 999 215 1 SO 0 52.1 419
16:13:46 30 999 214 1 N 0 52 413
16:16:49 29 999 215 0 W 0 52.5 410
16:19:47 29 998 217 0 S 0 52.6 411
16:22:48 28 999 221 0 NW 0 53.6 409
16:25:51 28 998 226 0 NW 0 54 416
16:28:48 28 999 233 0 NW 0 54.8 415
16:31:48 29 999 245 0 SO 0 55.6 418
16:34:51 30 998 245 2 SW 0 54.8 410
16:37:48 30 998 237 2 SO 0 53.6 415
16:40:48 31 999 236 2 NW 0 51.9 412
16:43:50 30 999 237 0 SW 0 50.3 410
16:46:49 30 998 246 2 SW 0 50.2 403
16:49:49 31 999 246 3 SW 0 49.4 405
16:52:47 32 999 235 1 N 0 48.5 406
16:55:48 32 999 238 6 S 0 48.2 410
16:58:47 31 998 241 2 S 0 48.2 407
17:01:47 31 998 233 7 SO 0 48.4 407
17:04:48 31 999 230 0 SW 0 48.1 407
17:07:50 30 999 230 0 SO 0 49.7 406
17:10:48 30 998 233 1 NW 0 50.9 407
17:13:49 30 998 234 3 O 0 52.3 408
17:16:50 29 999 238 4 NW 0 52.9 403
17:19:48 29 998 237 1 SW 0 53 403
17:22:47 30 999 238 1 W 0 52.7 407
17:25:48 30 998 244 0 NW 0 52.9 403
17:28:47 31 998 247 6 W 0 52 406
17:31:48 32 999 246 2 SO 0 50.6 407
17:34:49 32 998 247 4 NW 0 46.5 403
17:37:47 33 998 247 3 NW 0 44.5 406
17:40:47 33 998 246 6 N 0 41.9 401
17:43:48 33 998 247 4 NW 0 41.2 406
17:46:47 33 998 247 3 NO 0 42.9 404
17:49:49 32 998 247 15 NW 0 42.1 407
17:52:50 32 998 247 4 NO 0 41.9 404
17:55:48 31 999 247 4 NO 0 42.7 407
17:58:49 31 998 247 4 N 0 43.3 404
18:01:48 31 998 247 3 NW 0 44.8 407
18:04:49 32 998 245 0 SO 0 45.4 406
18:07:49 31 998 237 1 NW 0 44.2 407
18:10:48 30 998 247 6 SO 0 44.1 405
18:13:50 30 998 246 6 NW 0 45.7 407
18:16:46 30 998 243 4 W 0 46.9 403
18:19:48 30 998 237 5 NW 0 45.4 401
18:22:48 29 999 230 3 W 0 46.5 407
18:25:49 28 998 232 7 NW 0 48.3 407
18:28:47 28 998 239 4 N 0 52 406
18:31:49 29 998 240 4 NW 0 52.7 406
18:34:50 29 998 223 2 NW 0 52.1 404
18:37:51 28 998 213 3 NW 0 50.7 404
18:40:47 28 998 206 1 W 0 49.7 404
18:43:48 27 998 205 4 NO 0 51.7 406
18:46:48 27 998 207 6 NW 0 53.3 406
18:49:47 27 998 207 2 N 0 54 403
18:52:48 27 998 209 10 W 0 54.2 406
18:55:48 27 998 209 6 N 0 54.4 406
18:58:48 26 998 210 11 NW 0 54.8 406
19:01:47 26 998 209 11 N 0 55.2 406
19:04:48 26 998 212 3 N 0 55.4 405
19:07:48 26 998 213 7 N 0 55.6 404
19:10:52 26 998 215 5 NW 0 56.4 404
19:13:50 26 998 214 2 NW 0 56.3 407
19:16:48 26 999 216 1 W 0 56.5 407
19:19:47 26 998 214 1 S 0 56.4 404
19:22:49 26 998 210 1 NW 0 56.6 406
19:25:49 26 999 208 1 N 0 57.4 407
19:28:50 26 998 209 1 NO 0 58.3 407
19:31:51 26 998 218 2 NW 0 58.7 406
19:34:50 26 999 215 3 NW 0 58.9 407
19:37:48 26 998 210 4 NW 0 59.1 407
19:40:50 26 999 214 1 NW 0 59.2 406
19:43:49 26 998 216 6 NW 0 59.3 404
19:46:47 26 998 221 1 NW 0 59.4 407
19:49:50 26 998 221 3 NW 0 60.3 406
19:52:48 26 999 220 2 NW 0 60.3 406
19:55:48 26 999 217 4 N 0 59.9 407
19:58:49 26 999 216 0 NW 0 59.9 404
20:01:48 26 998 211 0 NW 0 59.9 406
20:04:47 26 998 206 2 N 0 60 407
20:07:49 26 998 201 3 N 0 59.9 407
20:10:51 26 998 196 6 NW 0 59.8 406
20:13:48 26 998 193 6 NW 0 60 407
20:16:48 26 998 184 4 NW 0 60 407
20:19:49 26 998 170 1 N 0 60.2 406
20:22:48 26 998 164 2 N 0 60.3 404
20:25:47 25 998 156 6 O 0 60.4 404
20:28:47 25 998 147 3 NO 0 60.3 407
20:31:46 25 998 140 4 0 60.3 404
20:34:50 25 998 133 3 NW 0 60.6 406
20:37:50 25 998 129 2 N 0 60.8 407
20:40:48 25 998 126 5 N 0 60.9 404
20:43:47 25 998 124 4 N 0 60.8 407
20:46:47 25 999 124 5 N 0 61 407
20:49:49 25 998 124 5 NW 0 61.2 404
20:52:48 25 998 120 1 N 0 61.4 407
20:55:49 25 998 118 7 N 0 61.6 408
20:58:48 25 999 116 2 W 0 61.8 407
21:01:48 25 999 114 2 O 0 62 404
21:04:49 25 999 115 5 N 0 62.2 405
21:07:48 25 998 118 9 N 0 62.4 407
21:10:48 25 999 118 10 NW 0 62.4 406
21:13:47 25 998 117 4 N 0 62.6 406
21:16:47 25 998 114 8 NW 0 62.7 404
21:19:50 25 998 108 4 W 0 62.8 404
21:22:48 25 998 99 4 NW 0 63.1 404
21:25:50 24 998 91 3 NW 0 63.3 407
21:28:51 24 999 85 5 NW 0 63.5 404
21:31:46 24 998 78 6 NO 0 63.7 404
21:34:48 24 998 71 2 NW 0 64.1 404
21:37:47 24 998 63 0 N 0 64.3 404
21:40:47 24 998 57 4 NW 0 64.6 407
21:43:48 24 999 52 1 O 0 65.1 404
21:46:46 24 998 47 5 N 0 65.6 407
21:49:47 24 999 39 5 NW 0 66 418
21:52:46 24 998 33 1 N 0 66.3 431
21:55:49 24 998 29 8 NW 0 66.7 448
21:58:47 24 998 25 1 N 0 67.2 459
22:01:47 23 999 19 4 N 0 67.5 468
22:04:47 23 998 15 2 N 0 67.9 471
22:07:49 23 998 12 0 O 0 68.6 480
22:10:48 23 999 9 1 N 0 68.4 491
22:13:49 23 998 8 3 NW 0 69.2 506
22:16:50 23 999 6 3 NW 0 69.5 519
22:19:47 23 998 5 2 NO 0 69.7 528
22:22:49 23 998 4 2 NW 0 70.2 547
22:25:47 23 998 3 2 N 0 70.8 557
22:28:49 23 998 0 9 NW 0 70.8 571
22:31:48 23 998 0 5 NW 0 71.3 571
22:34:47 23 998 0 1 N 0 71.7 571
22:37:46 23 998 0 4 N 0 72.2 580
22:40:47 23 998 0 3 N 0 72.4 588
22:43:49 23 998 0 2 N 0 72.2 594
22:46:47 23 998 0 3 O 0 72.7 603
22:49:49 23 998 0 2 NO 0 72.7 612
22:52:48 23 998 0 7 NW 0 72.5 603
22:55:48 23 999 0 2 NO 0 72.5 582
22:58:47 23 998 0 2 N 0 72.8 573
23:01:49 23 998 0 3 NO 0 72.8 589
23:04:46 23 999 0 2 O 0 73.1 600
23:07:47 23 998 0 4 N 0 73.2 606
23:10:48 23 998 0 4 NO 0 73.4 604
23:13:46 23 999 0 0 O 0 73.4 606
23:16:47 22 998 0 0 SO 0 73.7 611
23:19:47 22 999 0 2 N 0 73.7 620
23:22:48 22 998 0 5 NO 0 73.8 623
23:25:49 22 998 0 1 NW 0 74.1 622
23:28:48 22 999 0 4 N 0 74.1 628
23:31:47 22 998 0 0 N 0 74.2 630
23:34:47 22 998 0 2 W 0 74.5 638
23:37:48 22 998 0 0 SO 0 74.3 638
23:40:49 22 998 0 2 NW 0 74.3 637
23:43:49 22 999 0 0 NW 0 74.2 632
23:46:46 22 998 0 1 N 0 74.3 627
23:49:49 22 998 0 0 NW 0 75.3 630
23:52:48 22 998 0 0 O 0 75.5 627
23:55:47 22 998 0 0 N 0 75.7 630
23:58:48 22 998 0 3 NO 0 75.7 630

Letzte Änderung : 04-Jan-2022
Copyright Jens Köhler, Wolfsburg, Obere Dorfstraße 10d